Regional Weather Roundup
Issued by NWS Wakefield, VA

Home | Current Version | Previous Version | Text Only | Print | Product List | Glossary Off
Versions: 1 2 3 4 5 6 7 8 9 10 11 12 13 14 15 16 17 18 19 20 21 22 23 24 25 26 27

000
ASUS41 KAKQ 091215
RWRAKQ

REGIONAL WEATHER ROUNDUP
NATIONAL WEATHER SERVICE WAKEFIELD VA
700 AM EST FRI DEC 09 2016

Note: "fair" indicates few or no clouds below 12,000 feet with no
significant weather and/or obstructions to visibility. * = Denotes
station may not report precipitation (e.g., rain,snow,etc.),
thunder or fog.

VAZ042-051-052>054-056-091300-
NORTHERN VIRGINIA

CITY           SKY/WX    TMP DP  RH WIND       PRES   REMARKS
WASH NATIONAL  CLEAR     31  13  47 NW18G25   30.29R WCI  19
DULLES         CLEAR     28  12  51 NW14      30.28R WCI  17
FORT BELVOIR   CLEAR     29  12  47 NW14      30.29R WCI  19
QUANTICO       CLEAR     30  13  49 W5        30.32R
FREDERICKSBRG* CLEAR     30  15  54 NW14G21   30.30R WCI  20
STAFFORD*      CLEAR     28  13  53 W6        30.35R
WARRENTON      CLEAR     24  11  56 CALM      30.29R
CULPEPER*      CLEAR     29  12  49 W3        30.30R
MANASSAS*      CLEAR    N/A N/A N/A N12       30.29
LEESBURG*      CLEAR     30  19  64 NW20G25   30.28R WCI  18
WINCHESTER     CLEAR     27  12  54 NW16G23   30.28R WCI  14
FRONT ROYAL*   FAIR      28  12  50 SW3       30.28R
LURAY*         FAIR      28  16  59 W9        30.29S
$$

VAZ048-049-060>072-079>083-091300-
CENTRAL AND SOUTH CENTRAL VIRGINIA

CITY           SKY/WX    TMP DP  RH WIND       PRES   REMARKS
RICHMOND       CLEAR     28  15  58 NW7       30.30R
CHESTERFIELD*  FAIR      27   1  33 NW6       30.32R
PETERSBURG*    CLEAR     30  13  48 NW10G16   30.32R WCI  21
HANOVER        CLEAR     27  15  61 CALM      30.32R
TAPPAHANNOCK*  CLEAR     30  10  43 NW3       30.30R
QUINTON*       FAIR      28  16  60 NW5       30.30R
CHARLOTTSVILLE CLEAR     29  10  45 NW7       30.31R
GORDONSVILLE*  FAIR      28  12  51 CALM      30.31R
ORANGE*          N/A     27  16  63 CALM      30.32R
LOUISA*        PTCLDY    30  18  59 W6        30.29R
BUMPASS*       FAIR      26  17  68 W3        30.30R
FARMVILLE*     CLEAR     29  17  61 CALM      30.31R
CREWE*         FAIR      24  20  83 CALM      30.31R
FORT PICKETT*  FAIR      27  11  51 NW5       30.31R
CHASE CITY*    FAIR      28  14  56 CALM      30.32R
CLARKSVILLE*   FAIR      30  18  59 CALM      30.32R
SOUTH HILL*    CLEAR     28  17  62 NW3       30.37R
LAWRENCEVILLE* FAIR      28  17  65 NW5       30.31R
EMPORIA*       CLEAR     27  18  69 CALM      30.33R
$$

VAZ088>098-091300-
SOUTHEAST VIRGINIA

CITY           SKY/WX    TMP DP  RH WIND       PRES   REMARKS
NORFOLK        CLEAR     34  18  52 NW12G18   30.28R
VIRGINIA BEACH PTCLDY    33  19  56 NW17G23   30.27R WCI  22
NORFOLK NAVAL  PTCLDY    33  19  56 NW17      30.31R WCI  22
WEST POINT*    CLEAR     29  15  56 NW3       30.32R
SALUDA*        FAIR      32  18  55 NW14G22   30.28R WCI  22
NEWPORT NEWS   CLEAR     30  18  60 NW10      30.30R WCI  21
LANGLEY AFB    CLEAR     32  17  54 NW14      30.28R WCI  22
FORT EUSTIS    PTCLDY    32  17  53 N12       30.28R WCI  23
WILLIAMSBURG*  CLEAR     30  19  64 CALM      30.31R
HR EXEC AP*    FAIR      32  18  55 NW5       30.29R
FRANKLIN*      CLEAR     28  19  67 NW3       30.32R
US460-WAKEFLD  CLEAR     26  20  77 CALM      30.31R
$$

VAZ020-022-025-037-045-091300-
WEST CENTRAL AND SOUTHWEST VIRGINIA

CITY           SKY/WX    TMP DP  RH WIND       PRES   REMARKS
STAUNTON*      PTCLDY    23  10  58 W3        30.31R
WAYNESBORO*    FAIR      23   8  51 W8        30.28R
HOT SPRINGS VA CLOUDY    14   5  67 NW20G31   30.11S WCI  -3
LYNCHBURG      CLEAR     26  12  55 CALM      30.32R
DANVILLE       CLEAR     27  17  66 N5        30.33R
SOUTH BOSTON*  FAIR      30  13  48 NW12G18   30.33R WCI  20
MARTINSVILLE   CLEAR     28  15  56 N8        30.35R
ROANOKE        MOCLDY    25  10  53 NW16      30.37R WCI  12
BLACKSBURG     CLOUDY    22  12  64 NW13G20   30.33R WCI  10
DUBLIN*        FLURRIES  24  14  65 NW15G25   30.32R WCI  12
MARION*        FLURRIES  22  13  66 W10G18    30.32R WCI  12
HILLSVILLE*    CLOUDY    21  12  68 NW22G29   30.24R WCI   5
RICHLANDS*     FLURRIES  19  13  77 NW7       30.32R
WISE*          LGT SNOW  19  12  73 NW6       30.35S
ABINGDON*      CLOUDY    25  14  63 NW9       30.36S
$$

MDZ021>025-VAZ099-100-091300-
SOUTHERN MARYLAND AND THE DELMARVA PENINSULA

CITY           SKY/WX    TMP DP  RH WIND       PRES   REMARKS
PATUXENT RIVER PTCLDY    29  14  53 W12       30.28R WCI  19
BAY BRIDGE APT CLEAR     30  16  55 MISG      30.25R
LEONARDTOWN    CLEAR     30  14  51 W9        30.28R
DOVER          CLEAR     29  17  59 W13       30.21R WCI  19
GEORGETOWN     CLEAR     30  16  56 W7        30.23R
EASTON         CLEAR     30  16  55 NW12G21   30.29R WCI  21
CAMBRIDGE      CLEAR     30  16  55 NW10G20   30.25S WCI  21
SALISBURY      CLEAR     30  16  56 W10       30.24R WCI  21
OCEAN CITY     CLEAR     29  17  61 NW8       30.24R
WALLOPS ISLAND CLEAR     30  17  58 NW12      30.26R WCI  20
ACCOMACK*      PTCLDY    33  22  63 NW10G21   30.26R WCI  25
$$

NCZ012>017-030>032-091300-
NORTH CENTRAL AND EASTERN NORTH CAROLINA

CITY           SKY/WX    TMP DP  RH WIND       PRES   REMARKS
ROANOKE RAPIDS FAIR      32  19  59 NW3       30.32R
RALEIGH        PTCLDY    30  15  53 CALM      30.33R
ELIZABETH CITY CLEAR     28  20  71 W5        30.29R
AHOSKIE*       PTCLDY    28  19  68 CALM      30.32R
EDENTON*       CLEAR     32  24  70 CALM      30.30R
CURRITUCK*     CLEAR     33  19  56 NW7       30.28R
KILL DEVIL HLS CLEAR     36  24  61 NW8       30.26R
MANTEO         CLEAR     37  21  53 N10G16    30.28R
CAPE HATTERAS  CLEAR     40  23  50 N8        30.25R
TARBORO*       NOT AVBL
GOLDSBORO      CLEAR     32  16  52 NW5       30.32R
WASHINGTON     CLEAR     30  20  66 W5        30.32R
GREENVILLE     CLEAR     32  21  64 CALM      30.32R
NEW BERN       CLEAR     34  19  54 NW8       30.32R
WILMINGTON     CLEAR     33  21  61 N6        30.34R
$$

VAZ048-091300-
ELSEWHERE

CITY           SKY/WX    TMP DP  RH WIND       PRES   REMARKS
HARRISBURG PA  CLOUDY    30  18  60 W7        30.21R
BALTIMORE      CLEAR     28  15  58 W14G22    30.25R WCI  17
ANNAPOLIS      CLEAR     31  15  52 W9G18     30.25R
ANDREWS AFB    CLEAR     29  12  50 NW13      30.26R WCI  18
PHILADELPHIA   PTCLDY    31  16  54 W12       30.19R WCI  22
HENDERSON NC   CLEAR     27  13  55 NW7       30.31R
GREENSBORO     CLEAR     27  15  61 NW5       30.31R
ROCKY MOUNT    CLEAR     30  18  60 NW5       30.33R
$$

VAZ100-091300-
MARINE

STATION/POSITION TIME  TEMP    WIND        PRES    WAVE   SWELL
                       AIR SEA DIR/SP/G            HT/PER HT/PER
                 (UTC) (F)     (DEG/KT/KT) (MB)    (FT/S) (FT/S)
BRANDYWINE LGT   1142   32     320/ 23/ 26   N/A
CAPE MAY NJ      1142   33 43  310/ 14/ 27 1022.0R
LEWES DE         1142   32 46  310/ 19/ 23 1022.9R
OCEAN-CITY-INLET 1142   32 49  310/  7/ 11 1024.0R
WACHAPREAGUE VA  1142   32 43  310/  3/  7 1024.5R
THOMAS POINT MD  1200   31 47  290/ 20/ 24   N/A
GOOSES REEF MD   1200   33 49  300/ 17/ 23 1025.8    2/ 3
COVE POINT MD    1142   31     340/ 15/ 20 1025.5R
SOLOMONS ISLAND  1142   32 49  300/  7/ 12   N/A
BISHOPS HEAD MD  1142   31 38  320/ 12/ 18 1025.1R
PINEY POINT MD   1142          330/ 25/ 30   N/A
POTOMAC MD       1200   34 49  340/ 16/ 23 1024.6    3/ 4
CAMBRIDGE MD     1142   32 45  300/ 18/ 24 1023.8R
LEWISETTA VA     1142   33 46  330/ 14/ 19 1024.9R
RAPPAHANNOCK LGT 1142          320/ 23/ 25 1025.3R
STINGRAY PT      1150   34     340/ 17/ 21 1025.4R
YORK RVR RNG VA  1142   33     330/ 19/ 22 1024.9R
YORKTOWN VA      1142   33 50  320/ 18/ 21 1025.3R
JAMESTOWN VA     1200   33 50  330/ 10/ 14   N/A     1
DOMINION TERM VA 1142   35     360/  4/ 13 1025.6R
KIPTOPEKE VA     1142      49  330/ 23/ 27   N/A
CHES BAY BRIDGE  1142   37 51  340/ 22/ 26 1025.0R
CAPE HENRY VA    1142   36     320/ 25/ 30   N/A
WILLOUBY STN VA  1142   34     330/ 15/ 17 1026.3R
S CRANEY ISL VA  1142   34     330/ 12/ 16 1025.2R
CAPE HENRY BUOY  1142      54                N/A     5/ 6
CAPE CHARLES BUO 1156      53                N/A     4/ 4
OFFSHORE WE BUOY 1151      55                N/A     7/ 7
64NM E OF VA BCH 1150   41 58  340/ 21/ 29 1022.9R   8/ 7   2/12
DUCK PIER NC     1142   37 53  330/ 15/ 18 1024.2R
44100 DUCK FRF   1135      56                N/A     6/ 6   2/13
OREGON INLET NC  1142   38 53  320/ 14/ 19 1024.6R
HATTERAS NC      1142   41 56  350/ 20/ 23 1024.0R
DIAMOND SHLS NC  1150   45 75  360/ 19/ 25 1023.8R   6/ 6   2/11
CAPE LOOKOUT NC  1100   39     340/ 18/ 21 1024.3R
$$




USA.gov is the U.S. government's official web portal to all federal, state and local government web resources and services.